P/2022 S1 ( PanSTARRS )

Japanese version
Home page
Updated on March 7, 2023

---------------------------------------------------------------------

* Profile

Discovery Date September 23, 2022
Magnitude 20.5 mag
Discoverer Pan-STARRS 2 telescope (Haleakala)

* Orbital Elements

Epoch 2023 Feb. 25.0 TT = JDT 2460000.5
T 2022 Aug. 19.15117 TT                                 Rudenko
q   3.1514945            (2000.0)            P               Q
n   0.06075640     Peri.  262.75588     +0.65727203     -0.64268716
a   6.4082783      Node   136.09059     +0.68359307     +0.72830476
e   0.5082151      Incl.   34.58210     -0.31732316     +0.23775067
P  16.2
>From 79 observations 2022 Sept. 14-2023 Feb. 8, mean residual 0".4.

* Magnitudes Graph

        m1 = 13.0 + 5 log d + 10.0 log r

---------------------------------------------------------------------

The orbital elements are published on M.P.E.C. 2023-C137.
The magnitudes graphs are made with Comet for Windows.

---------------------------------------------------------------------

Copyright(C) Seiichi Yoshida (comet@aerith.net). All rights reserved.